N7MLR Weather Reports


Display with metric or nautical units.
time (UTC)temp
F
wind
direction
speed
MPH
gust
MPH
rain 1hr
in
rain 24hr
in
rain mn
in
humidity
%
barometer
mb
20260905071643 78 208 0.0 0.0 0.00 0.00 0.00 85 1014.3
20260905071138 78 211 1.0 1.0 0.00 0.00 0.00 85 1014.5
20260905070633 78 210 0.0 0.0 0.00 0.00 0.00 86 1014.0
20260905070129 77 209 0.0 1.0 0.00 0.00 0.00 87 1014.1
20260905065627 77 224 0.0 0.0 0.00 0.00 0.00 87 1014.4
20260905065122 77 224 0.0 0.0 0.00 0.00 0.00 87 1014.1
20260905064617 77 224 0.0 1.0 0.00 0.00 0.00 86 1014.4
20260905064112 77 226 0.0 0.0 0.00 0.00 0.00 86 1014.3
20260905063605 77 222 0.0 0.0 0.00 0.00 0.00 85 1014.3
20260905063102 78 221 0.0 0.0 0.00 0.00 0.00 85 1014.3
20260905062557 78 219 0.0 0.0 0.00 0.00 0.00 84 1014.3
20260905062056 78 219 0.0 0.0 0.00 0.00 0.00 83 1014.4
20260905061552 79 216 0.0 0.0 0.00 0.00 0.00 82 1014.3
20260905061051 80 215 0.0 0.0 0.00 0.00 0.00 80 1014.5
20260905060547 80 214 0.0 1.0 0.00 0.00 0.00 79 1014.4
20260905060043 80 200 1.0 1.0 0.00 0.00 0.00 79 1014.2
20260905055541 80 201 1.0 2.0 0.00 0.00 0.00 79 1014.1
20260905055036 80 204 0.0 0.0 0.00 0.00 0.00 79 1014.4
20260905054532 78 207 0.0 1.0 0.00 0.00 0.00 82 1014.2
20260905054027 78 225 0.0 0.0 0.00 0.00 0.00 83 1014.1
20260905053527 78 224 0.0 0.0 0.00 0.00 0.00 83 1014.1
20260905053023 78 224 0.0 0.0 0.00 0.00 0.00 83 1014.3
20260905052522 78 224 0.0 1.0 0.00 0.00 0.00 82 1013.8
20260905052016 79 223 0.0 0.0 0.00 0.00 0.00 82 1014.3
20260905051512 79 221 0.0 0.0 0.00 0.00 0.00 81 1014.1
20260905051009 79 221 0.0 0.0 0.00 0.00 0.00 81 1014.4
20260905050504 80 217 0.0 0.0 0.00 0.00 0.00 80 1014.2
20260905050001 81 216 0.0 0.0 0.00 0.00 0.00 78 1014.4
20260905045455 81 202 0.0 1.0 0.00 0.00 0.00 77 1014.2
20260905044951 81 207 0.0 0.0 0.00 0.00 0.00 77 1014.4
20260905044445 81 215 1.0 1.0 0.00 0.00 0.00 77 1014.3
20260905043945 81 207 0.0 1.0 0.00 0.00 0.00 77 1014.2
20260905043444 81 208 0.0 1.0 0.00 0.00 0.00 77 1014.3
20260905042939 81 207 1.0 1.0 0.00 0.00 0.00 76 1014.2
20260905042433 81 211 0.0 0.0 0.00 0.00 0.00 76 1014.7
20260905041929 80 228 0.0 1.0 0.00 0.00 0.00 79 1014.2
20260905041425 80 224 1.0 2.0 0.00 0.00 0.00 79 1014.3
20260905040924 80 225 0.0 0.0 0.00 0.00 0.00 79 1014.4
20260905040418 80 223 0.0 0.0 0.00 0.00 0.00 78 1014.3
20260905035918 80 221 0.0 0.0 0.00 0.00 0.00 78 1014.1
20260905035413 80 225 0.0 0.0 0.00 0.00 0.00 77 1014.2
20260905034910 81 230 1.0 1.0 0.00 0.00 0.00 77 1014.1
20260905034405 81 216 1.0 1.0 0.00 0.00 0.00 76 1014.2
20260905033904 82 208 0.0 0.0 0.00 0.00 0.00 73 1014.0
20260905033359 82 207 0.0 1.0 0.00 0.00 0.00 73 1014.1
20260905032858 82 212 1.0 1.0 0.00 0.00 0.00 73 1014.0
20260905032354 82 219 0.0 0.0 0.00 0.00 0.00 73 1014.0
20260905031849 82 204 1.0 1.0 0.00 0.00 0.00 72 1014.0
20260905031345 82 210 1.0 1.0 0.00 0.00 0.00 73 1014.0
20260905030840 81 211 0.0 0.0 0.00 0.00 0.00 73 1014.1
20260905030336 81 196 0.0 0.0 0.00 0.00 0.00 73 1013.7
20260905025835 81 204 0.0 1.0 0.00 0.00 0.00 73 1013.6
20260905025330 80 212 0.0 1.0 0.00 0.00 0.00 74 1013.7
20260905024827 80 229 0.0 0.0 0.00 0.00 0.00 74 1013.5
20260905024321 81 229 0.0 0.0 0.00 0.00 0.00 73 1013.4
20260905023817 81 229 0.0 0.0 0.00 0.00 0.00 72 1013.4
20260905023312 82 227 0.0 0.0 0.00 0.00 0.00 71 1013.4
20260905022811 82 234 1.0 1.0 0.00 0.00 0.00 71 1013.0
20260905022306 82 218 0.0 0.0 0.00 0.00 0.00 70 1013.1
20260905021801 83 223 0.0 1.0 0.00 0.00 0.00 69 1013.3
20260905021256 83 214 0.0 1.0 0.00 0.00 0.00 68 1013.0
20260905020756 84 226 1.0 1.0 0.00 0.00 0.00 68 1013.1
20260905020251 84 210 0.0 1.0 0.00 0.00 0.00 67 1013.2
20260905015750 84 212 1.0 1.0 0.00 0.00 0.00 68 1013.2
20260905015244 84 212 0.0 1.0 0.00 0.00 0.00 67 1013.0
20260905014743 84 208 0.0 1.0 0.00 0.00 0.00 67 1013.0
20260905014239 84 209 0.0 1.0 0.00 0.00 0.00 67 1013.0
20260905013735 84 212 1.0 1.0 0.00 0.00 0.00 67 1013.0
20260905013231 84 200 2.0 3.0 0.00 0.00 0.00 67 1013.1
20260905012726 84 232 1.0 1.0 0.00 0.00 0.00 66 1012.9
20260905012221 84 218 1.0 1.0 0.00 0.00 0.00 65 1013.1
20260905011718 85 219 2.0 3.0 0.00 0.00 0.00 64 1012.9
20260905011208 85 212 1.0 1.0 0.00 0.00 0.00 60 1012.9
20260905010708 85 210 1.0 1.0 0.00 0.00 0.00 59 1012.9
20260905010203 85 205 0.0 1.0 0.00 0.00 0.00 58 1012.5
20260905005700 86 201 0.0 1.0 0.00 0.00 0.00 58 1012.8
20260905005155 86 202 1.0 1.0 0.00 0.00 0.00 57 1012.5
20260905004649 86 204 0.0 0.0 0.00 0.00 0.00 57 1012.7
20260905004144 86 206 1.0 1.0 0.00 0.00 0.00 56 1012.6
20260905003640 86 208 1.0 1.0 0.00 0.00 0.00 56 1012.7
20260905003136 86 220 0.0 0.0 0.00 0.00 0.00 57 1012.6
20260905002630 86 217 1.0 2.0 0.00 0.00 0.00 57 1012.5
20260905002120 87 228 1.0 1.0 0.00 0.00 0.00 57 1012.4
20260905001615 87 223 0.0 0.0 0.00 0.00 0.00 57 1012.4
20260905001115 87 218 0.0 0.0 0.00 0.00 0.00 56 1012.2
20260905000610 88 205 3.0 3.0 0.00 0.00 0.00 55 1012.4
20260905000106 89 205 2.0 2.0 0.00 0.00 0.00 56 1012.2
20260904235606 89 228 4.0 5.0 0.00 0.00 0.00 56 1012.0
20260904235105 89 210 0.0 0.0 0.00 0.00 0.00 57 1011.9
20260904234600 89 235 3.0 5.0 0.00 0.00 0.00 58 1012.0
20260904234056 89 201 1.0 1.0 0.00 0.00 0.00 60 1012.1
20260904233556 89 321 1.0 1.0 0.00 0.00 0.00 60 1012.0
20260904233052 89 249 2.0 3.0 0.00 0.00 0.00 60 1011.9
20260904232549 89 214 0.0 1.0 0.00 0.00 0.00 60 1011.8
20260904232045 90 217 0.0 1.0 0.00 0.00 0.00 60 1011.7
20260904231541 89 229 2.0 5.0 0.00 0.00 0.00 61 1011.8
20260904231036 89 221 3.0 3.0 0.00 0.00 0.00 61 1012.0
20260904230534 89 225 2.0 3.0 0.00 0.00 0.00 60 1012.1
20260904230031 89 209 4.0 6.0 0.00 0.00 0.00 60 1012.1
20260904225528 89 213 2.0 2.0 0.00 0.00 0.00 60 1012.1
20260904225028 90 213 3.0 5.0 0.00 0.00 0.00 60 1012.1
20260904224523 91 208 1.0 3.0 0.00 0.00 0.00 58 1012.1
20260904224023 91 212 0.0 1.0 0.00 0.00 0.00 58 1012.0
20260904223522 92 199 1.0 2.0 0.00 0.00 0.00 56 1012.1
20260904223018 91 205 0.0 1.0 0.00 0.00 0.00 57 1012.3
20260904222513 91 211 2.0 3.0 0.00 0.00 0.00 56 1012.3
20260904222008 91 214 1.0 2.0 0.00 0.00 0.00 56 1012.4
20260904221503 91 217 3.0 3.0 0.00 0.00 0.00 55 1012.7
20260904220957 91 206 0.0 1.0 0.00 0.00 0.00 53 1012.7
20260904220457 90 198 1.0 2.0 0.00 0.00 0.00 55 1012.5
20260904215952 91 208 1.0 1.0 0.00 0.00 0.00 56 1012.6
20260904215448 92 225 0.0 0.0 0.00 0.00 0.00 55 1012.5
20260904214943 92 228 1.0 1.0 0.00 0.00 0.00 55 1012.5
20260904214438 92 209 2.0 2.0 0.00 0.00 0.00 56 1012.6
20260904213933 91 207 0.0 0.0 0.00 0.00 0.00 54 1012.7
20260904213426 91 202 1.0 2.0 0.00 0.00 0.00 55 1012.8
20260904212923 91 200 0.0 1.0 0.00 0.00 0.00 55 1013.0
20260904212422 91 191 1.0 2.0 0.00 0.00 0.00 56 1013.1
20260904211918 91 200 1.0 2.0 0.00 0.00 0.00 55 1013.0
20260904211413 91 221 1.0 1.0 0.00 0.00 0.00 57 1013.2
20260904210908 90 216 1.0 1.0 0.00 0.00 0.00 58 1013.3
20260904210407 91 221 2.0 3.0 0.00 0.00 0.00 57 1013.3
20260904205903 91 288 1.0 2.0 0.00 0.00 0.00 56 1013.3
20260904205359 91 208 0.0 0.0 0.00 0.00 0.00 58 1013.0
20260904204855 91 198 1.0 2.0 0.00 0.00 0.00 58 1013.3
20260904204351 92 204 0.0 1.0 0.00 0.00 0.00 56 1013.3
20260904203847 92 209 1.0 2.0 0.00 0.00 0.00 57 1013.2
20260904203343 91 147 3.0 3.0 0.00 0.00 0.00 59 1013.3
20260904202839 92 225 0.0 1.0 0.00 0.00 0.00 55 1013.3
20260904202335 93 202 0.0 1.0 0.00 0.00 0.00 55 1013.5
20260904201831 93 195 1.0 1.0 0.00 0.00 0.00 55 1013.3
20260904201330 91 210 1.0 2.0 0.00 0.00 0.00 58 1013.4
20260904200826 91 205 1.0 2.0 0.00 0.00 0.00 58 1013.5
20260904200324 92 236 1.0 2.0 0.00 0.00 0.00 58 1013.7
20260904195819 92 190 1.0 2.0 0.00 0.00 0.00 58 1013.8
20260904195317 92 197 2.0 2.0 0.00 0.00 0.00 56 1013.6
20260904194812 91 209 2.0 2.0 0.00 0.00 0.00 59 1014.0
20260904194312 91 198 0.0 1.0 0.00 0.00 0.00 59 1013.8
20260904193807 91 195 2.0 2.0 0.00 0.00 0.00 60 1013.7
20260904193303 91 211 3.0 5.0 0.00 0.00 0.00 60 1014.0
20260904192757 91 200 1.0 1.0 0.00 0.00 0.00 60 1013.8
20260904192253 89 205 0.0 1.0 0.00 0.00 0.00 62 1014.1
20260904191750 89 187 1.0 1.0 0.00 0.00 0.00 62 1014.2
20260904191246 89 238 1.0 1.0 0.00 0.00 0.00 63 1014.1
20260904190742 89 216 2.0 3.0 0.00 0.00 0.00 62 1014.1
20260904190237 89 194 0.0 0.0 0.00 0.00 0.00 63 1014.2
20260904185734 90 196 0.0 1.0 0.00 0.00 0.00 62 1014.3
20260904185228 91 202 0.0 1.0 0.00 0.00 0.00 61 1014.3
20260904184727 90 199 0.0 1.0 0.00 0.00 0.00 60 1014.4
20260904184223 91 203 1.0 1.0 0.00 0.00 0.00 62 1014.4
20260904183718 91 199 0.0 1.0 0.00 0.00 0.00 62 1014.4
20260904183213 92 354 1.0 2.0 0.00 0.00 0.00 60 1014.4
20260904182708 92 193 2.0 2.0 0.00 0.00 0.00 62 1014.5
20260904182203 92 228 1.0 2.0 0.00 0.00 0.00 60 1014.6
20260904181659 90 195 0.0 1.0 0.00 0.00 0.00 63 1014.7
20260904181158 89 195 1.0 1.0 0.00 0.00 0.00 64 1014.6
20260904180654 88 213 0.0 0.0 0.00 0.00 0.00 67 1014.7
20260904180149 89 266 1.0 1.0 0.00 0.00 0.00 66 1014.8
20260904175648 89 185 1.0 1.0 0.00 0.00 0.00 67 1014.8
20260904175146 87 207 1.0 2.0 0.00 0.00 0.00 69 1014.9
20260904174642 87 231 1.0 1.0 0.00 0.00 0.00 70 1015.0
20260904174138 87 193 2.0 2.0 0.00 0.00 0.00 69 1014.9
20260904173633 87 200 1.0 1.0 0.00 0.00 0.00 70 1015.1
20260904173128 87 208 2.0 2.0 0.00 0.00 0.00 70 1014.9
20260904172625 86 205 0.0 0.0 0.00 0.00 0.00 70 1014.9
20260904172124 86 196 1.0 1.0 0.00 0.00 0.00 71 1015.0
20260904171619 87 232 0.0 1.0 0.00 0.00 0.00 71 1015.3
20260904171115 85 191 0.0 1.0 0.00 0.00 0.00 73 1014.9
20260904170610 86 191 2.0 2.0 0.00 0.00 0.00 72 1015.0
20260904170106 87 213 1.0 1.0 0.00 0.00 0.00 71 1015.2
20260904165605 86 160 2.0 2.0 0.00 0.00 0.00 72 1015.0
20260904165104 86 185 3.0 3.0 0.00 0.00 0.00 73 1015.2
20260904164559 87 213 3.0 3.0 0.00 0.00 0.00 73 1015.0
20260904164055 86 204 1.0 1.0 0.00 0.00 0.00 74 1014.9
20260904163555 86 218 1.0 1.0 0.00 0.00 0.00 75 1015.1
20260904163050 86 190 2.0 2.0 0.00 0.00 0.00 74 1015.3
20260904162544 84 46 1.0 2.0 0.00 0.00 0.00 78 1015.4
20260904162040 83 225 1.0 1.0 0.00 0.00 0.00 79 1015.3
20260904161534 83 220 0.0 0.0 0.00 0.00 0.00 81 1015.4
20260904161030 83 224 0.0 0.0 0.00 0.00 0.00 81 1015.4
20260904160525 83 262 2.0 2.0 0.00 0.00 0.00 80 1015.6
20260904160022 83 196 0.0 0.0 0.00 0.00 0.00 81 1015.6
20260904155521 82 215 0.0 0.0 0.00 0.00 0.00 82 1015.5
20260904155021 82 198 0.0 0.0 0.00 0.00 0.00 82 1015.5
20260904154514 82 213 0.0 0.0 0.00 0.00 0.00 83 1015.5
20260904154009 82 217 0.0 0.0 0.00 0.00 0.00 83 1015.5
20260904153509 81 213 0.0 0.0 0.00 0.00 0.00 84 1015.5
20260904153006 81 221 0.0 1.0 0.00 0.00 0.00 85 1015.5
20260904152501 81 235 0.0 1.0 0.00 0.00 0.00 85 1015.4
20260904151955 81 228 1.0 1.0 0.00 0.00 0.00 86 1015.4
20260904151450 80 219 0.0 1.0 0.00 0.00 0.00 86 1015.3
20260904150945 80 219 0.0 0.0 0.00 0.00 0.00 87 1015.1
20260904150440 80 210 0.0 0.0 0.00 0.00 0.00 87 1015.2
20260904145938 80 213 1.0 1.0 0.00 0.00 0.00 87 1015.3
20260904145434 80 210 1.0 1.0 0.00 0.00 0.00 88 1015.1
20260904144929 80 209 0.0 0.0 0.00 0.00 0.00 89 1015.2
20260904144425 79 209 0.0 1.0 0.00 0.00 0.00 89 1015.4
20260904143921 79 207 0.0 1.0 0.00 0.00 0.00 90 1015.1
20260904143417 79 210 0.0 0.0 0.00 0.00 0.00 90 1015.3
20260904142913 80 213 0.0 0.0 0.00 0.00 0.00 89 1015.2
20260904142409 80 212 0.0 1.0 0.00 0.00 0.00 89 1015.1
20260904141903 80 204 1.0 1.0 0.00 0.00 0.00 90 1015.5
20260904141358 79 211 0.0 1.0 0.00 0.00 0.00 92 1015.1
20260904140855 78 219 0.0 0.0 0.00 0.00 0.00 92 1014.9
20260904140349 79 212 1.0 1.0 0.00 0.00 0.00 91 1015.0
20260904135848 79 233 0.0 1.0 0.00 0.00 0.00 91 1014.7
20260904135343 78 220 0.0 1.0 0.00 0.00 0.00 91 1014.9
20260904134839 78 214 1.0 1.0 0.00 0.00 0.00 91 1014.7
20260904134334 78 226 1.0 1.0 0.00 0.00 0.00 91 1014.6
20260904133834 78 222 0.0 0.0 0.00 0.00 0.00 91 1014.6
20260904133329 78 201 1.0 1.0 0.00 0.00 0.00 91 1014.6
20260904132829 78 233 2.0 2.0 0.00 0.00 0.00 91 1014.6
20260904132324 78 204 1.0 2.0 0.00 0.00 0.00 91 1014.7
20260904131824 78 223 0.0 1.0 0.00 0.00 0.00 91 1014.5
20260904131320 79 220 1.0 2.0 0.00 0.00 0.00 90 1014.5
20260904130820 79 220 1.0 1.0 0.00 0.00 0.00 89 1014.6
20260904130319 79 210 0.0 1.0 0.00 0.00 0.00 88 1014.6
20260904125815 79 217 1.0 1.0 0.00 0.00 0.00 89 1014.3
20260904125311 79 202 1.0 1.0 0.00 0.00 0.00 89 1014.3
20260904124810 78 204 1.0 2.0 0.00 0.00 0.00 90 1014.3
20260904124307 78 206 1.0 1.0 0.00 0.00 0.00 91 1014.2
20260904123801 77 208 0.0 0.0 0.00 0.00 0.00 93 1014.2
20260904123257 77 222 0.0 0.0 0.00 0.00 0.00 93 1014.1
20260904122751 77 208 1.0 1.0 0.00 0.00 0.00 93 1014.1
20260904122251 77 205 0.0 0.0 0.00 0.00 0.00 93 1013.7
20260904121746 77 217 1.0 2.0 0.00 0.00 0.00 93 1013.8
20260904121243 77 225 0.0 1.0 0.00 0.00 0.00 93 1013.8
20260904120739 77 231 0.0 0.0 0.00 0.00 0.00 93 1014.0
20260904120234 77 230 0.0 0.0 0.00 0.00 0.00 93 1014.0
20260904115729 77 226 1.0 2.0 0.00 0.00 0.00 92 1013.6
20260904115224 77 227 0.0 1.0 0.00 0.00 0.00 92 1013.5
20260904114719 77 228 0.0 0.0 0.00 0.00 0.00 92 1013.4
20260904114213 77 227 0.0 0.0 0.00 0.00 0.00 92 1013.4
20260904113708 77 224 0.0 0.0 0.00 0.00 0.00 92 1013.1
20260904113207 77 224 0.0 0.0 0.00 0.00 0.00 91 1013.2
20260904112702 77 224 0.0 0.0 0.00 0.00 0.00 91 1013.4
20260904112158 77 224 0.0 1.0 0.00 0.00 0.00 90 1013.4
20260904111654 78 224 0.0 0.0 0.00 0.00 0.00 89 1013.3
20260904111149 78 207 0.0 0.0 0.00 0.00 0.00 88 1013.2
20260904110644 79 209 0.0 1.0 0.00 0.00 0.00 87 1013.2
20260904110143 79 212 0.0 1.0 0.00 0.00 0.00 87 1013.0
20260904105638 78 207 0.0 0.0 0.00 0.00 0.00 88 1013.3
20260904105133 78 209 0.0 1.0 0.00 0.00 0.00 90 1013.4
20260904104629 77 205 0.0 0.0 0.00 0.00 0.00 91 1013.6
20260904104124 77 224 0.0 0.0 0.00 0.00 0.00 91 1013.6
20260904103620 77 223 0.0 0.0 0.00 0.00 0.00 91 1013.2
20260904103116 77 224 0.0 0.0 0.00 0.00 0.00 91 1013.2
20260904102612 77 227 0.0 0.0 0.00 0.00 0.00 91 1013.1
20260904102106 77 225 0.0 0.0 0.00 0.00 0.00 91 1013.3
20260904101603 77 219 0.0 0.0 0.00 0.00 0.00 91 1013.3
20260904101058 77 214 0.0 0.0 0.00 0.00 0.00 91 1013.0
20260904100554 77 213 0.0 0.0 0.00 0.00 0.00 91 1013.0
20260904100049 77 227 0.0 1.0 0.00 0.00 0.00 91 1013.0
20260904095544 77 222 0.0 0.0 0.00 0.00 0.00 91 1013.1
20260904095039 77 219 0.0 0.0 0.00 0.00 0.00 90 1012.9
20260904094534 77 223 0.0 0.0 0.00 0.00 0.00 90 1013.0
20260904094029 77 228 1.0 1.0 0.00 0.00 0.00 90 1013.2
20260904093526 78 210 0.0 0.0 0.00 0.00 0.00 88 1013.2
20260904093020 79 217 0.0 0.0 0.00 0.00 0.00 87 1012.9
20260904092516 79 206 1.0 1.0 0.00 0.00 0.00 86 1013.0
20260904092013 79 216 0.0 0.0 0.00 0.00 0.00 86 1013.1
20260904091508 79 210 0.0 0.0 0.00 0.00 0.00 86 1013.0
20260904091008 78 214 0.0 1.0 0.00 0.00 0.00 88 1012.8
20260904090503 77 213 0.0 1.0 0.00 0.00 0.00 90 1012.9
20260904090004 76 215 0.0 0.0 0.00 0.00 0.00 91 1013.0
20260904085459 77 215 0.0 0.0 0.00 0.00 0.00 91 1013.0
20260904084953 77 215 0.0 0.0 0.00 0.00 0.00 90 1013.0
20260904084449 77 214 0.0 0.0 0.00 0.00 0.00 90 1012.9
20260904083944 77 214 0.0 0.0 0.00 0.00 0.00 90 1012.7
20260904083441 77 213 0.0 0.0 0.00 0.00 0.00 90 1012.9
20260904082936 77 220 0.0 0.0 0.00 0.00 0.00 89 1012.9
20260904082431 77 217 0.0 0.0 0.00 0.00 0.00 89 1013.0
20260904081926 77 217 0.0 0.0 0.00 0.00 0.00 89 1012.9
20260904081421 78 216 0.0 0.0 0.00 0.00 0.00 88 1013.1
20260904080917 78 214 0.0 1.0 0.00 0.00 0.00 87 1013.1
20260904080413 79 218 0.0 1.0 0.00 0.00 0.00 86 1013.1
20260904075909 80 204 1.0 2.0 0.00 0.00 0.00 83 1013.2
20260904075404 80 205 1.0 1.0 0.00 0.00 0.00 84 1013.1
20260904074902 80 204 0.0 1.0 0.00 0.00 0.00 84 1013.4
20260904074358 80 204 1.0 1.0 0.00 0.00 0.00 84 1013.2
20260904073853 80 202 1.0 2.0 0.00 0.00 0.00 85 1013.2
20260904073349 78 212 1.0 1.0 0.00 0.00 0.00 87 1013.2
20260904072845 78 206 0.0 1.0 0.00 0.00 0.00 88 1013.3
20260904072345 78 210 1.0 1.0 0.00 0.00 0.00 88 1013.4